{"data":{"norad_id":24920,"epoch":"2026-05-25T02:50:46.773888Z","epoch_age_seconds":58617,"freshness":"FRESH","line1":"1 24920U 97047A   26145.11859692  .00000155  00000+0  85488-4 0  9990","line2":"2 24920  69.9540  66.1261 0024158 305.4559  54.4308 14.27934444495391","mean_motion":14.27934444,"eccentricity":0.0024158,"inclination_deg":69.954,"raan_deg":66.1261,"arg_perigee_deg":305.4559,"mean_anomaly_deg":54.4308,"bstar":8.5488e-5,"rev_number":49539,"period_min":100.84496568107,"perigee_km":781.30579991593,"apogee_km":815.98113241626,"semimajor_km":7176.7804661661,"source":"CELESTRAK","updated_at":"2026-05-25T13:37:54.966037Z"}}